Weather History for KSGH - July, 2013

Change the Weather History Date:

Friday, July 12, 2013

  Actual Average (KDAY) Record (KDAY)
Temperature  
Mean Temperature 68 °F 74 °F  
Max Temperature 79 °F 84 °F 103 °F (1936)
Min Temperature 57 °F 65 °F 49 °F (1898)
Degree Days  
Heating Degree Days 0 0  
Month to date heating degree days 0  
Since 1 June heating degree days 22  
Since 1 July heating degree days 0  
Cooling Degree Days 3 9  
Month to date cooling degree days 108  
Year to date cooling degree days 368  
Since 1 June cooling degree days 298  
Growing Degree Days 18 (Base 50)    
Moisture  
Dew Point 59 °F    
Average Humidity 73    
Maximum Humidity 96    
Minimum Humidity 52    
Precipitation  
Precipitation 0.00 in 0.15 in 2.16 in (1990)
Month to date precipitation 1.73  
Year to date precipitation 22.94  
Snow  
Snow 0.00 in 0.00 in 0.00 in ()
Month to date snowfall 0.0  
Since 1 June snowfall 0.0  
Since 1 July snowfall 0.0  
Snow Depth -    
Sea Level Pressure  
Sea Level Pressure 30.09 in    
Wind  
Wind Speed 6 mph (ENE)    
Max Wind Speed 14 mph    
Max Gust Speed -    
Visibility 7 miles    
Events      
T = Trace of Precipitation, MM = Missing Value Source: NWS Daily Summary

Daily Weather History Graph

Daily Weather History Graph

Search for Another Location

Airport or City:

Trip Planner

Search our weather history database for the weather conditions in past years. The results will help you decide how hot, cold, wet, or windy it might be!

Date:

Astronomy

Jul. 12, 2013 Rise Set
Actual Time 6:17 AM EDT 9:04 PM EDT
Civil Twilight 5:45 AM EDT 9:36 PM EDT
Nautical Twilight 5:05 AM EDT 10:16 PM EDT
Astronomical Twilight 4:19 AM EDT 11:01 PM EDT
Moon 10:32 AM EDT (7/12) 11:14 PM EDT (7/12)
Length of Visible Light 15h 50m
Length of Day
14h 46m
Waxing Crescent, 17% of the Moon is Illuminated
Jul 12
Waxing Crescent
Jul 15
First Quarter
Jul 22
Full
Jul 29
Last Quarter
Aug 6
New

Hourly Weather History & Observations

Time (EDT) Temp. Dew Point Humidity Pressure Visibility Wind Dir Wind Speed Gust Speed Precip Events Conditions
12:56 AM 61.9 °F 57.9 °F 87% 30.05 in 8.0 mi SE 3.5 mph - N/A   Clear
1:56 AM 59.9 °F 57.9 °F 93% 30.06 in 8.0 mi Calm Calm - N/A   Clear
2:56 AM 59.0 °F 56.8 °F 93% 30.06 in 8.0 mi SSE 3.5 mph - N/A   Clear
3:56 AM 57.9 °F 56.8 °F 96% 30.06 in 8.0 mi Calm Calm - N/A   Clear
4:56 AM 57.9 °F 56.8 °F 96% 30.06 in 7.0 mi Calm Calm - N/A   Clear
5:56 AM 57.9 °F 55.9 °F 93% 30.08 in 7.0 mi SE 4.6 mph - N/A   Clear
6:56 AM 57.9 °F 56.8 °F 96% 30.11 in 5.0 mi Variable 4.6 mph - N/A   Clear
7:56 AM 63.0 °F 59.0 °F 87% 30.12 in 6.0 mi NNE 9.2 mph - N/A   Clear
8:56 AM 66.9 °F 59.9 °F 78% 30.12 in 7.0 mi NE 10.4 mph - N/A   Clear
9:56 AM 70.9 °F 55.9 °F 59% 30.12 in 7.0 mi NE 13.8 mph - N/A   Clear
10:56 AM 72.9 °F 55.9 °F 55% 30.12 in 7.0 mi NNE 11.5 mph - N/A   Clear
11:56 AM 74.8 °F 55.9 °F 52% 30.12 in 7.0 mi NE 12.7 mph - N/A   Clear
12:56 PM 75.9 °F 59.0 °F 56% 30.11 in 7.0 mi ENE 12.7 mph - N/A   Clear
1:56 PM 77.9 °F 61.9 °F 58% 30.09 in 7.0 mi ENE 12.7 mph - N/A   Partly Cloudy
2:56 PM 77.9 °F 59.0 °F 52% 30.09 in 6.0 mi NE 12.7 mph - N/A   Haze
3:56 PM 79.0 °F 59.9 °F 52% 30.09 in 7.0 mi ENE 10.4 mph - N/A   Partly Cloudy
4:56 PM 79.9 °F 61.0 °F 52% 30.08 in 7.0 mi ENE 9.2 mph - N/A   Partly Cloudy
5:56 PM 77.9 °F 61.9 °F 58% 30.06 in 7.0 mi NNE 9.2 mph - N/A   Clear
6:56 PM 79.0 °F 61.0 °F 54% 30.07 in 7.0 mi NNE 9.2 mph - N/A   Partly Cloudy
7:56 PM 75.9 °F 61.9 °F 62% 30.07 in 6.0 mi NE 8.1 mph - N/A   Haze
8:56 PM 72.0 °F 61.9 °F 70% 30.08 in 6.0 mi NE 6.9 mph - N/A   Haze
9:56 PM 70.9 °F 63.0 °F 76% 30.09 in 8.0 mi Variable 6.9 mph - N/A   Mostly Cloudy
10:56 PM 68.0 °F 63.0 °F 84% 30.10 in 7.0 mi ENE 8.1 mph - N/A   Clear
11:56 PM 65.8 °F 63.0 °F 90% 30.11 in 7.0 mi ENE 8.1 mph - N/A   Clear